#timestamp,LO_Frequency,Hit,StdDev 
1565946015.4,286047000.6,N
1565946035.2,286047001.2,N
1565946055.0,286047001.2,N
1565946055.9,286047001.2,N
1565946075.8,286047000.7,N
1565946095.6,286046998.2,N
1565946115.5,286046998.2,N
1565946135.3,286047001.1,N
1565946155.1,286047000.5,N
1565946175.9,286047001.1,N
1565946195.7,286047001.0,N
1565946215.6,286047000.5,N
1565946235.4,286047000.6,N
1565946255.2,286047000.3,N
1565946275.1,286047000.8,N
1565946276.0,286047000.8,N
1565946295.8,286047001.0,N
1565946315.6,286046999.9,N
1565946335.5,286046999.7,N
1565946355.3,286047000.6,N
1565946375.2,286047000.4,N
1565946395.0,286047000.7,N
1565946395.9,286047000.7,N
1565946415.7,286046998.5,N
1565946435.6,286046998.5,N
1565946455.4,286047000.9,N
1565946475.3,286047001.1,N
1565946495.1,286046998.7,N
1565946496.0,286046998.7,N
1565946515.8,286047000.5,N
1565946535.7,286046999.9,N
1565946555.5,286047002.6,N
1565946575.3,286047001.8,N
1565946595.2,286047001.9,N
1565946615.0,286047001.3,N
1565946615.9,286047001.3,N
1565946635.8,286047002.5,N
1565946655.6,286047002.7,N
1565946675.4,286047002.5,N
1565946695.3,286047002.4,N
1565946715.1,286047000.1,N
1565946735.9,286047000.1,N
1565946755.7,286047000.4,N
1565946775.5,286047001.9,N
1565946795.4,286047001.9,N
1565946815.2,286047001.8,N
1565946835.1,286047002.7,N
1565946836.0,286047002.7,N
1565946855.8,286046999.8,N
1565946875.6,286047000.4,N
1565946895.5,286046999.8,N
1565946915.3,286047002.7,N
1565946935.2,286047001.4,N
1565946955.9,286047003.8,N
1565946975.7,286047004.3,Y
1565946995.6,286047002.2,P
1565947015.4,286047001.8,P
1565947035.3,286047012.1,P
1565947055.1,286047011.6,N
1565947056.0,286047011.6,N
1565947075.8,286047016.6,Y
1565947095.7,286047011.8,P
1565947115.5,286047006.8,N
1565947135.4,286047003.6,N
1565947155.2,286047002.5,N
1565947175.0,286047000.3,N
1565947175.9,286047000.3,N
1565947195.8,286046998.9,N
1565947215.6,286046998.9,N
1565947235.4,286046996.8,N
1565947255.3,286046997.6,N
1565947275.1,286046997.3,N
1565947295.9,286046996.7,N
1565947315.7,286046997.0,N
1565947335.5,286046997.2,N
1565947355.4,286046997.8,N
1565947375.2,286046995.2,N
1565947395.1,286046995.7,N
1565947396.0,286046995.7,N
1565947415.8,286046995.7,N
1565947435.6,286046995.2,N
1565947455.5,286046995.9,N
1565947475.3,286046995.2,N
1565947495.1,286046994.6,N
1565947515.9,286046991.8,N
1565947535.7,286046993.9,N
1565947555.6,286046996.4,N
1565947575.4,286046996.0,N
1565947595.2,286046996.2,N
1565947615.1,286046996.4,N
1565947616.0,286046996.4,N
1565947635.8,286046996.2,N
1565947655.7,286046996.0,N
1565947675.5,286046996.0,N
1565947695.3,286046994.7,N
1565947715.2,286046993.7,Y
1565947735.0,286046996.6,P
1565947735.9,286046996.6,P
1565947755.8,286046999.1,P
1565947775.6,286046996.9,N
1565947795.4,286046997.3,N
1565947815.3,286046997.3,N
1565947835.1,286046996.9,Y
1565947855.9,286047000.3,P
1565947875.7,286047002.3,N
1565947895.5,286047002.7,N
1565947915.4,286047002.4,N
1565947935.2,286046999.8,N
1565947955.1,286047003.9,N
1565947956.0,286047003.9,N
1565947975.8,286047004.0,N
1565947995.6,286047001.7,N
1565948015.5,286047002.0,N
1565948035.3,286046999.9,N
1565948055.1,286047002.2,N
1565948075.9,286047002.1,N
1565948095.7,286047001.6,N
1565948115.6,286047001.5,N
1565948135.4,286047003.9,N
1565948155.2,286047011.9,Y
1565948175.1,286047000.0,P
1565948176.0,286047000.0,N
1565948195.8,286047000.3,N
1565948215.7,286047002.8,Y
1565948235.5,286046998.6,P
1565948255.3,286046998.1,N
1565948275.2,286046998.6,N
1565948295.0,286047000.3,N
1565948295.9,286047000.3,N
1565948315.8,286046998.2,N
1565948335.6,286047000.9,N
1565948355.4,286046998.4,N
1565948375.3,286046998.5,N
1565948395.1,286046999.0,N
1565948415.8,286046998.7,N
1565948435.7,286046998.7,N
1565948455.5,286046998.3,N
1565948475.4,286046999.3,N
1565948495.2,286046998.8,N
1565948515.0,286046999.1,N
1565948515.9,286046999.1,N
1565948535.8,286046999.3,N
1565948555.6,286046996.9,Y
1565948575.5,286046996.6,P
1565948595.3,286046999.5,N
1565948615.1,286046998.5,N
1565948635.9,286046998.9,N
1565948655.7,286046996.5,Y
1565948675.5,286047000.8,P
1565948695.4,286046998.2,N
1565948715.2,286046998.9,N
1565948735.1,286046999.0,N
1565948736.0,286046999.0,N
1565948755.8,286046998.1,N
1565948775.6,286046998.6,N
1565948795.5,286047000.9,N
1565948815.3,286047000.8,N
1565948835.2,286047002.6,N
1565948855.9,286047002.4,N
1565948875.7,286047000.3,N
1565948895.6,286047001.0,N
1565948915.4,286046999.0,N
1565948935.2,286046999.5,N
1565948955.1,286046999.2,N
1565948956.0,286046999.2,N
1565948975.8,286046999.4,N
1565948995.7,286046997.7,N
1565949015.5,286046997.7,N
1565949035.3,286046997.7,N
1565949055.2,286046997.9,N
1565949075.0,286046997.6,N
1565949075.9,286046997.6,N
1565949095.8,286046996.6,N
1565949115.6,286046996.6,N
1565949135.4,286046996.9,N
1565949155.3,286046999.5,N
1565949175.1,286046997.4,N
1565949195.9,286046994.9,Y
1565949215.7,286046996.8,P
1565949235.5,286046996.9,N
1565949255.4,286046998.9,N
1565949275.2,286047001.1,N
1565949295.0,286046999.1,N
1565949295.9,286046999.1,N
1565949315.8,286046999.2,N
1565949335.6,286046999.2,N
1565949355.5,286046999.0,N
1565949375.3,286047001.1,N
1565949395.1,286047001.1,N
1565949415.9,286046998.1,N
1565949435.7,286047000.7,N
1565949455.6,286046998.2,N
1565949475.4,286047000.8,N
1565949495.2,286047001.2,N
1565949515.1,286046998.7,N
1565949516.0,286046998.7,N
1565949535.8,286047000.7,N
1565949555.6,286047000.9,N
1565949575.5,286047000.7,N
1565949595.3,286046998.6,N
